Home   Weather   Lashkar Gah   Past weeks
Flag for Afghanistan

Past Weather in Lashkar Gah, Afghanistan — Yesterday and Last 2 Weeks

Now
79 °F

Clear.


Feels Like: 79 °F
Forecast: 94 / 70 °F
Wind: 7 mph from East

Location: Zabol Airport

Current Time: Apr 20, 2019 at 11:49:09 pm

Latest Report: Apr 20, 2019 at 10:30 pm


Visibility: 10 mi

Pressure: 29.65 "Hg (27.10 "Hg at 786m altitude)

Humidity: 39%

Dew Point: 52 °F

Location of Lashkar GahLocation

Past Weather in Lashkar Gah — Graph

°F

Lashkar Gah Temperature Yesterday

Maximum temperature yesterday: 95 °F (at 2:30 pm)
Minimum temperature yesterday: 63 °F (at 6:30 am)
Average temperature yesterday: 81 °F

High & Low Weather Summary for the Past Weeks

 TemperatureHumidityPressure
High102 °F (Apr 20, 3:30 pm)100% (Apr 15, 1:30 am)30.01 "Hg (Apr 15, 1:30 am)
Low57 °F (Apr 16, 4:30 am)14% (Apr 7, 2:30 pm)29.59 "Hg (Apr 8, 3:30 pm)
Average76 °F48%29.85 "Hg
* Reported Apr 5 10:30 pm — Apr 20 10:30 pm, Lashkar Gah. Weather by CustomWeather, © 2019

Note: Actual official high and low records may vary slightly from our data, if they occured in-between our weather recording intervals... More about our weather records

Advertising

Lashkar Gah Weather History for the Previous 24 Hours

Scroll right to see more
 ConditionsComfort  
Time TempWeatherWind HumidityBarometerVisibility
10:30 pm
Sat, Apr 20
79 °FClear.7 mph39%29.65 "Hg10 mi
9:30 pm82 °FClear.9 mph32%29.65 "Hg10 mi
8:30 pm86 °FClear.7 mph31%29.62 "Hg10 mi
7:30 pm90 °FClear.7 mph24%29.62 "Hg10 mi
6:30 pm97 °FSunny.5 mph18%29.59 "Hg10 mi
5:30 pm100 °FSunny.7 mph15%29.59 "Hg10 mi
4:30 pm100 °FSunny.5 mph16%29.59 "Hg10 mi
3:30 pm102 °FSunny.5 mph15%29.59 "Hg10 mi
2:30 pm99 °FSunny.7 mph19%29.62 "Hg10 mi
1:30 pm97 °FSunny.7 mph19%29.65 "Hg10 mi
11:30 am90 °FSunny.9 mph29%29.71 "Hg10 mi
10:30 am86 °FSunny.7 mph38%29.74 "Hg10 mi
9:30 am82 °FSunny.5 mph42%29.74 "Hg10 mi
8:30 am77 °FSunny.9 mph47%29.74 "Hg10 mi
7:30 am72 °FPassing clouds.9 mph57%29.74 "HgN/A
6:30 am68 °FSunny.9 mph69%29.74 "Hg10 mi
4:30 am68 °FClear.7 mph73%29.71 "Hg10 mi
1:30 am73 °FClear.No wind61%29.74 "Hg10 mi
12:30 am72 °FClear.5 mph65%29.74 "Hg10 mi
11:30 pm
Fri, Apr 19
75 °FClear.5 mph54%29.77 "Hg10 mi
Weather by CustomWeather, © 2019

See weather overview